sat.trackr.live / text

‹ back to catalog

STARLINK-5267

NORAD 55655 · 2023-021AD

PAYLOAD ACTIVE UNKNOWN

§ Identity

Operator
Country
US
Launch date
2023-02-17
Launch site
AFWTR
Launch vehicle
Mass (kg)
RCS (m²)

Purposes: comms

External: N2YO · Heavens-Above · Gunter

§ Orbital elements

Epoch: 2026-09-20T13:47:06.553824Z

Period
96.11 min
Inclination
70.0011°
Eccentricity
0.0003096
Mean motion
14.98330723 rev/d
Perigee alt
569.9 km
Apogee alt
574.2 km
Semi-major
6,950.2 km
B*
2.0439e-5
RAAN
33.1922°
Arg perigee
267.8059°
Mean anomaly
92.2746°
Rev number
19,846

§ Raw data

STARLINK-52671 55655U 23021AD  26263.57438141  .00000151  00000+0  20439-4 0  99942 55655  70.0011  33.1922 0003096 267.8059  92.2746 14.98330723198460

JSON: /api/v1/satellites/55655 · /tle

For live sub-satellite position, see the globe view (requires WebGL).

§ Visibility from observer

Set your observer location to see the next 7 days of passes ≥ 10°. The values pass through the URL so the page stays shareable.

No JS? Fill the form by hand. The geolocation button needs JavaScript.